;Netzebenenlast
;Umspannung MS/NS
;FE_NS/S_Netzebenenlast
Datum;Leistungsmittelwert in kW
01.01.2022 00:15:00;35891 
01.01.2022 00:30:00;36073 
01.01.2022 00:45:00;36070 
01.01.2022 01:00:00;36066 
01.01.2022 01:15:00;36327 
01.01.2022 01:30:00;35923 
01.01.2022 01:45:00;35815 
01.01.2022 02:00:00;35917 
01.01.2022 02:15:00;35823 
01.01.2022 02:30:00;36010 
01.01.2022 02:45:00;36001 
01.01.2022 03:00:00;35690 
01.01.2022 03:15:00;35749 
01.01.2022 03:30:00;35579 
01.01.2022 03:45:00;35596 
01.01.2022 04:00:00;36063 
01.01.2022 04:15:00;36029 
01.01.2022 04:30:00;35864 
01.01.2022 04:45:00;35969 
01.01.2022 05:00:00;36014 
01.01.2022 05:15:00;35915 
01.01.2022 05:30:00;35733 
01.01.2022 05:45:00;35633 
01.01.2022 06:00:00;35477 
01.01.2022 06:15:00;35504 
01.01.2022 06:30:00;35361 
01.01.2022 06:45:00;35118 
01.01.2022 07:00:00;35356 
01.01.2022 07:15:00;35598 
01.01.2022 07:30:00;35372 
01.01.2022 07:45:00;35390 
01.01.2022 08:00:00;35432 
01.01.2022 08:15:00;35324 
01.01.2022 08:30:00;35539 
01.01.2022 08:45:00;35675 
01.01.2022 09:00:00;35738 
01.01.2022 09:15:00;35431 
01.01.2022 09:30:00;35294 
01.01.2022 09:45:00;35487 
01.01.2022 10:00:00;35118 
01.01.2022 10:15:00;34899 
01.01.2022 10:30:00;35034 
01.01.2022 10:45:00;35028 
01.01.2022 11:00:00;34673 
01.01.2022 11:15:00;34415 
01.01.2022 11:30:00;34665 
01.01.2022 11:45:00;34971 
01.01.2022 12:00:00;34644 
01.01.2022 12:15:00;34904 
01.01.2022 12:30:00;34861 
01.01.2022 12:45:00;34733 
01.01.2022 13:00:00;34598 
01.01.2022 13:15:00;34313 
01.01.2022 13:30:00;34545 
01.01.2022 13:45:00;34816 
01.01.2022 14:00:00;34748 
01.01.2022 14:15:00;34785 
01.01.2022 14:30:00;34820 
01.01.2022 14:45:00;34539 
01.01.2022 15:00:00;34920 
01.01.2022 15:15:00;34840 
01.01.2022 15:30:00;34670 
01.01.2022 15:45:00;34803 
01.01.2022 16:00:00;34995 
01.01.2022 16:15:00;34988 
01.01.2022 16:30:00;35013 
01.01.2022 16:45:00;35225 
01.01.2022 17:00:00;35487 
01.01.2022 17:15:00;35138 
01.01.2022 17:30:00;35240 
01.01.2022 17:45:00;35062 
01.01.2022 18:00:00;35087 
01.01.2022 18:15:00;35192 
01.01.2022 18:30:00;35418 
01.01.2022 18:45:00;35841 
01.01.2022 19:00:00;35443 
01.01.2022 19:15:00;35470 
01.01.2022 19:30:00;35489 
01.01.2022 19:45:00;35403 
01.01.2022 20:00:00;35495 
01.01.2022 20:15:00;35427 
01.01.2022 20:30:00;35411 
01.01.2022 20:45:00;35354 
01.01.2022 21:00:00;35305 
01.01.2022 21:15:00;35515 
01.01.2022 21:30:00;35439 
01.01.2022 21:45:00;35495 
01.01.2022 22:00:00;35222 
01.01.2022 22:15:00;35253 
01.01.2022 22:30:00;35096 
01.01.2022 22:45:00;35110 
01.01.2022 23:00:00;35148 
01.01.2022 23:15:00;35545 
01.01.2022 23:30:00;35564 
01.01.2022 23:45:00;35420 
02.01.2022 00:00:00;35469 
02.01.2022 00:15:00;35377 
02.01.2022 00:30:00;35289 
02.01.2022 00:45:00;35425 
02.01.2022 01:00:00;35492 
02.01.2022 01:15:00;35380 
02.01.2022 01:30:00;35226 
02.01.2022 01:45:00;35176 
02.01.2022 02:00:00;35618 
02.01.2022 02:15:00;35423 
02.01.2022 02:30:00;35147 
02.01.2022 02:45:00;34990 
02.01.2022 03:00:00;35196 
02.01.2022 03:15:00;35350 
02.01.2022 03:30:00;35174 
02.01.2022 03:45:00;35146 
02.01.2022 04:00:00;35155 
02.01.2022 04:15:00;35414 
02.01.2022 04:30:00;35795 
02.01.2022 04:45:00;35282 
02.01.2022 05:00:00;35360 
02.01.2022 05:15:00;35672 
02.01.2022 05:30:00;35658 
02.01.2022 05:45:00;35385 
02.01.2022 06:00:00;35572 
02.01.2022 06:15:00;35362 
02.01.2022 06:30:00;35553 
02.01.2022 06:45:00;35624 
02.01.2022 07:00:00;35517 
02.01.2022 07:15:00;35591 
02.01.2022 07:30:00;35644 
02.01.2022 07:45:00;35470 
02.01.2022 08:00:00;35082 
02.01.2022 08:15:00;35354 
02.01.2022 08:30:00;35298 
02.01.2022 08:45:00;35142 
02.01.2022 09:00:00;35178 
02.01.2022 09:15:00;35356 
02.01.2022 09:30:00;35037 
02.01.2022 09:45:00;35154 
02.01.2022 10:00:00;35059 
02.01.2022 10:15:00;34966 
02.01.2022 10:30:00;35229 
02.01.2022 10:45:00;34873 
02.01.2022 11:00:00;34711 
02.01.2022 11:15:00;34953 
02.01.2022 11:30:00;34551 
02.01.2022 11:45:00;34317 
02.01.2022 12:00:00;34100 
02.01.2022 12:15:00;34282 
02.01.2022 12:30:00;34228 
02.01.2022 12:45:00;34022 
02.01.2022 13:00:00;34029 
02.01.2022 13:15:00;33714 
02.01.2022 13:30:00;33791 
02.01.2022 13:45:00;33655 
02.01.2022 14:00:00;34006 
02.01.2022 14:15:00;34588 
02.01.2022 14:30:00;34585 
02.01.2022 14:45:00;34431 
02.01.2022 15:00:00;34457 
02.01.2022 15:15:00;34500 
02.01.2022 15:30:00;34559 
02.01.2022 15:45:00;34729 
02.01.2022 16:00:00;34579 
02.01.2022 16:15:00;34583 
02.01.2022 16:30:00;34690 
02.01.2022 16:45:00;34697 
02.01.2022 17:00:00;34775 
02.01.2022 17:15:00;34699 
02.01.2022 17:30:00;34444 
02.01.2022 17:45:00;34201 
02.01.2022 18:00:00;34304 
02.01.2022 18:15:00;34119 
02.01.2022 18:30:00;34230 
02.01.2022 18:45:00;34178 
02.01.2022 19:00:00;34726 
02.01.2022 19:15:00;35123 
02.01.2022 19:30:00;34953 
02.01.2022 19:45:00;35018 
02.01.2022 20:00:00;35178 
02.01.2022 20:15:00;35572 
02.01.2022 20:30:00;35842 
02.01.2022 20:45:00;35361 
02.01.2022 21:00:00;35302 
02.01.2022 21:15:00;35302 
02.01.2022 21:30:00;35464 
02.01.2022 21:45:00;35233 
02.01.2022 22:00:00;34806 
02.01.2022 22:15:00;34789 
02.01.2022 22:30:00;34780 
02.01.2022 22:45:00;34772 
02.01.2022 23:00:00;34716 
02.01.2022 23:15:00;34458 
02.01.2022 23:30:00;34892 
02.01.2022 23:45:00;34993 
03.01.2022 00:00:00;34819 
03.01.2022 00:15:00;35171 
03.01.2022 00:30:00;35387 
03.01.2022 00:45:00;35336 
03.01.2022 01:00:00;35096 
03.01.2022 01:15:00;35049 
03.01.2022 01:30:00;35099 
03.01.2022 01:45:00;34817 
03.01.2022 02:00:00;35112 
03.01.2022 02:15:00;34999 
03.01.2022 02:30:00;34813 
03.01.2022 02:45:00;34931 
03.01.2022 03:00:00;34809 
03.01.2022 03:15:00;34514 
03.01.2022 03:30:00;34439 
03.01.2022 03:45:00;34327 
03.01.2022 04:00:00;34355 
03.01.2022 04:15:00;34193 
03.01.2022 04:30:00;33956 
03.01.2022 04:45:00;33813 
03.01.2022 05:00:00;34351 
03.01.2022 05:15:00;34575 
03.01.2022 05:30:00;34639 
03.01.2022 05:45:00;34594 
03.01.2022 06:00:00;34966 
03.01.2022 06:15:00;35119 
03.01.2022 06:30:00;35466 
03.01.2022 06:45:00;35657 
03.01.2022 07:00:00;36022 
03.01.2022 07:15:00;36310 
03.01.2022 07:30:00;36098 
03.01.2022 07:45:00;36210 
03.01.2022 08:00:00;36739 
03.01.2022 08:15:00;36567 
03.01.2022 08:30:00;36524 
03.01.2022 08:45:00;36404 
03.01.2022 09:00:00;36279 
03.01.2022 09:15:00;36144 
03.01.2022 09:30:00;36066 
03.01.2022 09:45:00;35855 
03.01.2022 10:00:00;35672 
03.01.2022 10:15:00;35573 
03.01.2022 10:30:00;35638 
03.01.2022 10:45:00;35381 
03.01.2022 11:00:00;35131 
03.01.2022 11:15:00;35031 
03.01.2022 11:30:00;35169 
03.01.2022 11:45:00;35231 
03.01.2022 12:00:00;35149 
03.01.2022 12:15:00;35263 
03.01.2022 12:30:00;35171 
03.01.2022 12:45:00;35174 
03.01.2022 13:00:00;35250 
03.01.2022 13:15:00;35100 
03.01.2022 13:30:00;35087 
03.01.2022 13:45:00;35518 
03.01.2022 14:00:00;35297 
03.01.2022 14:15:00;35109 
03.01.2022 14:30:00;35800 
03.01.2022 14:45:00;35979 
03.01.2022 15:00:00;35687 
03.01.2022 15:15:00;35590 
03.01.2022 15:30:00;35988 
03.01.2022 15:45:00;35681 
03.01.2022 16:00:00;35494 
03.01.2022 16:15:00;35375 
03.01.2022 16:30:00;35515 
03.01.2022 16:45:00;35572 
03.01.2022 17:00:00;35410 
03.01.2022 17:15:00;35454 
03.01.2022 17:30:00;35381 
03.01.2022 17:45:00;35364 
03.01.2022 18:00:00;34809 
03.01.2022 18:15:00;34845 
03.01.2022 18:30:00;35029 
03.01.2022 18:45:00;35108 
03.01.2022 19:00:00;34713 
03.01.2022 19:15:00;34615 
03.01.2022 19:30:00;34790 
03.01.2022 19:45:00;35025 
03.01.2022 20:00:00;35550 
03.01.2022 20:15:00;35531 
03.01.2022 20:30:00;35763 
03.01.2022 20:45:00;35695 
03.01.2022 21:00:00;35742 
03.01.2022 21:15:00;35773 
03.01.2022 21:30:00;35518 
03.01.2022 21:45:00;35364 
03.01.2022 22:00:00;35608 
03.01.2022 22:15:00;35062 
03.01.2022 22:30:00;35044 
03.01.2022 22:45:00;35042 
03.01.2022 23:00:00;34912 
03.01.2022 23:15:00;35330 
03.01.2022 23:30:00;35293 
03.01.2022 23:45:00;35140 
04.01.2022 00:00:00;34943 
04.01.2022 00:15:00;35063 
04.01.2022 00:30:00;35159 
04.01.2022 00:45:00;35436 
04.01.2022 01:00:00;35332 
04.01.2022 01:15:00;35239 
04.01.2022 01:30:00;35490 
04.01.2022 01:45:00;35420 
04.01.2022 02:00:00;35209 
04.01.2022 02:15:00;35108 
04.01.2022 02:30:00;35210 
04.01.2022 02:45:00;35085 
04.01.2022 03:00:00;35005 
04.01.2022 03:15:00;34725 
04.01.2022 03:30:00;34518 
04.01.2022 03:45:00;34561 
04.01.2022 04:00:00;34699 
04.01.2022 04:15:00;34394 
04.01.2022 04:30:00;34807 
04.01.2022 04:45:00;34750 
04.01.2022 05:00:00;34587 
04.01.2022 05:15:00;34402 
04.01.2022 05:30:00;34643 
04.01.2022 05:45:00;34972 
04.01.2022 06:00:00;35362 
04.01.2022 06:15:00;35441 
04.01.2022 06:30:00;35753 
04.01.2022 06:45:00;35987 
04.01.2022 07:00:00;36194 
04.01.2022 07:15:00;36293 
04.01.2022 07:30:00;36842 
04.01.2022 07:45:00;36807 
04.01.2022 08:00:00;36544 
04.01.2022 08:15:00;36681 
04.01.2022 08:30:00;36624 
04.01.2022 08:45:00;36342 
04.01.2022 09:00:00;36205 
04.01.2022 09:15:00;36320 
04.01.2022 09:30:00;36466 
04.01.2022 09:45:00;36466 
04.01.2022 10:00:00;36175 
04.01.2022 10:15:00;36170 
04.01.2022 10:30:00;36472 
04.01.2022 10:45:00;36310 
04.01.2022 11:00:00;36246 
04.01.2022 11:15:00;36312 
04.01.2022 11:30:00;36325 
04.01.2022 11:45:00;36266 
04.01.2022 12:00:00;36523 
04.01.2022 12:15:00;36337 
04.01.2022 12:30:00;36696 
04.01.2022 12:45:00;37043 
04.01.2022 13:00:00;36722 
04.01.2022 13:15:00;36801 
04.01.2022 13:30:00;36673 
04.01.2022 13:45:00;36773 
04.01.2022 14:00:00;36615 
04.01.2022 14:15:00;36429 
04.01.2022 14:30:00;36656 
04.01.2022 14:45:00;36921 
04.01.2022 15:00:00;36894 
04.01.2022 15:15:00;36741 
04.01.2022 15:30:00;36097 
04.01.2022 15:45:00;36034 
04.01.2022 16:00:00;35968 
04.01.2022 16:15:00;35850 
04.01.2022 16:30:00;35875 
04.01.2022 16:45:00;35935 
04.01.2022 17:00:00;35892 
04.01.2022 17:15:00;35457 
04.01.2022 17:30:00;35298 
04.01.2022 17:45:00;35377 
04.01.2022 18:00:00;35396 
04.01.2022 18:15:00;35117 
04.01.2022 18:30:00;34947 
04.01.2022 18:45:00;34992 
04.01.2022 19:00:00;34967 
04.01.2022 19:15:00;34885 
04.01.2022 19:30:00;34932 
04.01.2022 19:45:00;35027 
04.01.2022 20:00:00;35245 
04.01.2022 20:15:00;35073 
04.01.2022 20:30:00;35268 
04.01.2022 20:45:00;35304 
04.01.2022 21:00:00;35028 
04.01.2022 21:15:00;35209 
04.01.2022 21:30:00;35426 
04.01.2022 21:45:00;35110 
04.01.2022 22:00:00;35188 
04.01.2022 22:15:00;35319 
04.01.2022 22:30:00;35190 
04.01.2022 22:45:00;35007 
04.01.2022 23:00:00;35243 
04.01.2022 23:15:00;35338 
04.01.2022 23:30:00;35232 
04.01.2022 23:45:00;35250 
05.01.2022 00:00:00;35333 
05.01.2022 00:15:00;35235 
05.01.2022 00:30:00;35299 
05.01.2022 00:45:00;35212 
05.01.2022 01:00:00;35357 
05.01.2022 01:15:00;35353 
05.01.2022 01:30:00;35345 
05.01.2022 01:45:00;35207 
05.01.2022 02:00:00;35188 
05.01.2022 02:15:00;35189 
05.01.2022 02:30:00;35120 
05.01.2022 02:45:00;34920 
05.01.2022 03:00:00;35225 
05.01.2022 03:15:00;35408 
05.01.2022 03:30:00;35688 
05.01.2022 03:45:00;35738 
05.01.2022 04:00:00;35719 
05.01.2022 04:15:00;35684 
05.01.2022 04:30:00;35572 
05.01.2022 04:45:00;35579 
05.01.2022 05:00:00;35783 
05.01.2022 05:15:00;35811 
05.01.2022 05:30:00;35546 
05.01.2022 05:45:00;35707 
05.01.2022 06:00:00;35937 
05.01.2022 06:15:00;36425 
05.01.2022 06:30:00;36834 
05.01.2022 06:45:00;37189 
05.01.2022 07:00:00;37025 
05.01.2022 07:15:00;37256 
05.01.2022 07:30:00;37417 
05.01.2022 07:45:00;37676 
05.01.2022 08:00:00;37548 
05.01.2022 08:15:00;37646 
05.01.2022 08:30:00;37735 
05.01.2022 08:45:00;37687 
05.01.2022 09:00:00;37460 
05.01.2022 09:15:00;37306 
05.01.2022 09:30:00;37194 
05.01.2022 09:45:00;37404 
05.01.2022 10:00:00;37249 
05.01.2022 10:15:00;37449 
05.01.2022 10:30:00;37415 
05.01.2022 10:45:00;37258 
05.01.2022 11:00:00;37432 
05.01.2022 11:15:00;37299 
05.01.2022 11:30:00;37552 
05.01.2022 11:45:00;37558 
05.01.2022 12:00:00;37591 
05.01.2022 12:15:00;37270 
05.01.2022 12:30:00;37454 
05.01.2022 12:45:00;37539 
05.01.2022 13:00:00;37663 
05.01.2022 13:15:00;37728 
05.01.2022 13:30:00;37707 
05.01.2022 13:45:00;38021 
05.01.2022 14:00:00;37927 
05.01.2022 14:15:00;37565 
05.01.2022 14:30:00;37273 
05.01.2022 14:45:00;37099 
05.01.2022 15:00:00;36940 
05.01.2022 15:15:00;37656 
05.01.2022 15:30:00;37306 
05.01.2022 15:45:00;36761 
05.01.2022 16:00:00;36697 
05.01.2022 16:15:00;37017 
05.01.2022 16:30:00;36606 
05.01.2022 16:45:00;37116 
05.01.2022 17:00:00;37065 
05.01.2022 17:15:00;37075 
05.01.2022 17:30:00;36766 
05.01.2022 17:45:00;36665 
05.01.2022 18:00:00;36320 
05.01.2022 18:15:00;36241 
05.01.2022 18:30:00;36282 
05.01.2022 18:45:00;36140 
05.01.2022 19:00:00;35772 
05.01.2022 19:15:00;35982 
05.01.2022 19:30:00;35733 
05.01.2022 19:45:00;35582 
05.01.2022 20:00:00;36440 
05.01.2022 20:15:00;36407 
05.01.2022 20:30:00;36002 
05.01.2022 20:45:00;35879 
05.01.2022 21:00:00;35978 
05.01.2022 21:15:00;35710 
05.01.2022 21:30:00;35595 
05.01.2022 21:45:00;35607 
05.01.2022 22:00:00;35834 
05.01.2022 22:15:00;35681 
05.01.2022 22:30:00;35434 
05.01.2022 22:45:00;35540 
05.01.2022 23:00:00;35547 
05.01.2022 23:15:00;35622 
05.01.2022 23:30:00;35417 
05.01.2022 23:45:00;35570 
06.01.2022 00:00:00;35370 
06.01.2022 00:15:00;35281 
06.01.2022 00:30:00;35635 
06.01.2022 00:45:00;35824 
06.01.2022 01:00:00;35694 
06.01.2022 01:15:00;35590 
06.01.2022 01:30:00;35652 
06.01.2022 01:45:00;35466 
06.01.2022 02:00:00;35412 
06.01.2022 02:15:00;35461 
06.01.2022 02:30:00;35356 
06.01.2022 02:45:00;35498 
06.01.2022 03:00:00;35424 
06.01.2022 03:15:00;35694 
06.01.2022 03:30:00;35545 
06.01.2022 03:45:00;35432 
06.01.2022 04:00:00;35547 
06.01.2022 04:15:00;35553 
06.01.2022 04:30:00;35452 
06.01.2022 04:45:00;35464 
06.01.2022 05:00:00;35349 
06.01.2022 05:15:00;35280 
06.01.2022 05:30:00;35729 
06.01.2022 05:45:00;36003 
06.01.2022 06:00:00;36004 
06.01.2022 06:15:00;36098 
06.01.2022 06:30:00;36407 
06.01.2022 06:45:00;36669 
06.01.2022 07:00:00;36941 
06.01.2022 07:15:00;37179 
06.01.2022 07:30:00;37373 
06.01.2022 07:45:00;37255 
06.01.2022 08:00:00;37204 
06.01.2022 08:15:00;37138 
06.01.2022 08:30:00;37359 
06.01.2022 08:45:00;37391 
06.01.2022 09:00:00;37143 
06.01.2022 09:15:00;37075 
06.01.2022 09:30:00;36873 
06.01.2022 09:45:00;37090 
06.01.2022 10:00:00;36644 
06.01.2022 10:15:00;36586 
06.01.2022 10:30:00;36955 
06.01.2022 10:45:00;37207 
06.01.2022 11:00:00;36665 
06.01.2022 11:15:00;36594 
06.01.2022 11:30:00;36584 
06.01.2022 11:45:00;36664 
06.01.2022 12:00:00;36789 
06.01.2022 12:15:00;36806 
06.01.2022 12:30:00;36718 
06.01.2022 12:45:00;36317 
06.01.2022 13:00:00;36234 
06.01.2022 13:15:00;36266 
06.01.2022 13:30:00;36060 
06.01.2022 13:45:00;36310 
06.01.2022 14:00:00;36486 
06.01.2022 14:15:00;36423 
06.01.2022 14:30:00;36129 
06.01.2022 14:45:00;36119 
06.01.2022 15:00:00;36306 
06.01.2022 15:15:00;35949 
06.01.2022 15:30:00;35550 
06.01.2022 15:45:00;35603 
06.01.2022 16:00:00;35777 
06.01.2022 16:15:00;35556 
06.01.2022 16:30:00;35654 
06.01.2022 16:45:00;35702 
06.01.2022 17:00:00;35644 
06.01.2022 17:15:00;35675 
06.01.2022 17:30:00;35608 
06.01.2022 17:45:00;35597 
06.01.2022 18:00:00;35742 
06.01.2022 18:15:00;35396 
06.01.2022 18:30:00;35188 
06.01.2022 18:45:00;35238 
06.01.2022 19:00:00;35407 
06.01.2022 19:15:00;35412 
06.01.2022 19:30:00;35468 
06.01.2022 19:45:00;35433 
06.01.2022 20:00:00;35522 
06.01.2022 20:15:00;35659 
06.01.2022 20:30:00;35892 
06.01.2022 20:45:00;35693 
06.01.2022 21:00:00;35495 
06.01.2022 21:15:00;35522 
06.01.2022 21:30:00;35495 
06.01.2022 21:45:00;35495 
06.01.2022 22:00:00;35407 
06.01.2022 22:15:00;35519 
06.01.2022 22:30:00;35609 
06.01.2022 22:45:00;35815 
06.01.2022 23:00:00;35912 
06.01.2022 23:15:00;35654 
06.01.2022 23:30:00;35696 
06.01.2022 23:45:00;35746 
07.01.2022 00:00:00;35878 
07.01.2022 00:15:00;36036 
07.01.2022 00:30:00;36300 
07.01.2022 00:45:00;36118 
07.01.2022 01:00:00;36145 
07.01.2022 01:15:00;35889 
07.01.2022 01:30:00;35753 
07.01.2022 01:45:00;35521 
07.01.2022 02:00:00;35763 
07.01.2022 02:15:00;35876 
07.01.2022 02:30:00;35737 
07.01.2022 02:45:00;35656 
07.01.2022 03:00:00;35352 
07.01.2022 03:15:00;35249 
07.01.2022 03:30:00;35499 
07.01.2022 03:45:00;35428 
07.01.2022 04:00:00;35218 
07.01.2022 04:15:00;35309 
07.01.2022 04:30:00;35709 
07.01.2022 04:45:00;35824 
07.01.2022 05:00:00;35801 
07.01.2022 05:15:00;35994 
07.01.2022 05:30:00;36399 
07.01.2022 05:45:00;36412 
07.01.2022 06:00:00;36420 
07.01.2022 06:15:00;36642 
07.01.2022 06:30:00;36983 
07.01.2022 06:45:00;37333 
07.01.2022 07:00:00;37522 
07.01.2022 07:15:00;37616 
07.01.2022 07:30:00;37745 
07.01.2022 07:45:00;37635 
07.01.2022 08:00:00;37862 
07.01.2022 08:15:00;37816 
07.01.2022 08:30:00;38040 
07.01.2022 08:45:00;37854 
07.01.2022 09:00:00;37819 
07.01.2022 09:15:00;38128 
07.01.2022 09:30:00;37819 
07.01.2022 09:45:00;37555 
07.01.2022 10:00:00;37622 
07.01.2022 10:15:00;37569 
07.01.2022 10:30:00;37001 
07.01.2022 10:45:00;37019 
07.01.2022 11:00:00;37328 
07.01.2022 11:15:00;37354 
07.01.2022 11:30:00;37397 
07.01.2022 11:45:00;37310 
07.01.2022 12:00:00;37407 
07.01.2022 12:15:00;37220 
07.01.2022 12:30:00;37188 
07.01.2022 12:45:00;37584 
07.01.2022 13:00:00;37576 
07.01.2022 13:15:00;37297 
07.01.2022 13:30:00;37028 
07.01.2022 13:45:00;37201 
07.01.2022 14:00:00;36846 
07.01.2022 14:15:00;36648 
07.01.2022 14:30:00;36706 
07.01.2022 14:45:00;36539 
07.01.2022 15:00:00;36379 
07.01.2022 15:15:00;36167 
07.01.2022 15:30:00;35524 
07.01.2022 15:45:00;35272 
07.01.2022 16:00:00;35208 
07.01.2022 16:15:00;35364 
07.01.2022 16:30:00;35599 
07.01.2022 16:45:00;35614 
07.01.2022 17:00:00;35549 
07.01.2022 17:15:00;35470 
07.01.2022 17:30:00;35612 
07.01.2022 17:45:00;36070 
07.01.2022 18:00:00;35818 
07.01.2022 18:15:00;35680 
07.01.2022 18:30:00;35656 
07.01.2022 18:45:00;35729 
07.01.2022 19:00:00;35957 
07.01.2022 19:15:00;35885 
07.01.2022 19:30:00;35880 
07.01.2022 19:45:00;35893 
07.01.2022 20:00:00;35808 
07.01.2022 20:15:00;35722 
07.01.2022 20:30:00;35694 
07.01.2022 20:45:00;35542 
07.01.2022 21:00:00;35470 
07.01.2022 21:15:00;35425 
07.01.2022 21:30:00;35600 
07.01.2022 21:45:00;35854 
07.01.2022 22:00:00;35567 
07.01.2022 22:15:00;35542 
07.01.2022 22:30:00;35764 
07.01.2022 22:45:00;36095 
07.01.2022 23:00:00;35933 
07.01.2022 23:15:00;35930 
07.01.2022 23:30:00;35924 
07.01.2022 23:45:00;35897 
08.01.2022 00:00:00;35792 
08.01.2022 00:15:00;36032 
08.01.2022 00:30:00;36226 
08.01.2022 00:45:00;36060 
08.01.2022 01:00:00;36051 
08.01.2022 01:15:00;35686 
08.01.2022 01:30:00;35761 
08.01.2022 01:45:00;35425 
08.01.2022 02:00:00;35545 
08.01.2022 02:15:00;35526 
08.01.2022 02:30:00;35210 
08.01.2022 02:45:00;35301 
08.01.2022 03:00:00;35468 
08.01.2022 03:15:00;35582 
08.01.2022 03:30:00;35653 
08.01.2022 03:45:00;35866 
08.01.2022 04:00:00;36036 
08.01.2022 04:15:00;35760 
08.01.2022 04:30:00;35689 
08.01.2022 04:45:00;35759 
08.01.2022 05:00:00;36063 
08.01.2022 05:15:00;35797 
08.01.2022 05:30:00;35790 
08.01.2022 05:45:00;35920 
08.01.2022 06:00:00;35816 
08.01.2022 06:15:00;35664 
08.01.2022 06:30:00;35564 
08.01.2022 06:45:00;35683 
08.01.2022 07:00:00;35850 
08.01.2022 07:15:00;35948 
08.01.2022 07:30:00;35668 
08.01.2022 07:45:00;35828 
08.01.2022 08:00:00;35688 
08.01.2022 08:15:00;35751 
08.01.2022 08:30:00;36266 
08.01.2022 08:45:00;35842 
08.01.2022 09:00:00;35734 
08.01.2022 09:15:00;35737 
08.01.2022 09:30:00;35844 
08.01.2022 09:45:00;35764 
08.01.2022 10:00:00;35682 
08.01.2022 10:15:00;35800 
08.01.2022 10:30:00;35786 
08.01.2022 10:45:00;35611 
08.01.2022 11:00:00;35267 
08.01.2022 11:15:00;35464 
08.01.2022 11:30:00;35221 
08.01.2022 11:45:00;35273 
08.01.2022 12:00:00;35023 
08.01.2022 12:15:00;35275 
08.01.2022 12:30:00;35123 
08.01.2022 12:45:00;34658 
08.01.2022 13:00:00;34685 
08.01.2022 13:15:00;35027 
08.01.2022 13:30:00;34909 
08.01.2022 13:45:00;34915 
08.01.2022 14:00:00;34708 
08.01.2022 14:15:00;34711 
08.01.2022 14:30:00;35150 
08.01.2022 14:45:00;35231 
08.01.2022 15:00:00;35254 
08.01.2022 15:15:00;35061 
08.01.2022 15:30:00;35005 
08.01.2022 15:45:00;35154 
08.01.2022 16:00:00;35213 
08.01.2022 16:15:00;34996 
08.01.2022 16:30:00;35343 
08.01.2022 16:45:00;35164 
08.01.2022 17:00:00;35494 
08.01.2022 17:15:00;35363 
08.01.2022 17:30:00;35200 
08.01.2022 17:45:00;35478 
08.01.2022 18:00:00;35664 
08.01.2022 18:15:00;35403 
08.01.2022 18:30:00;35648 
08.01.2022 18:45:00;35264 
08.01.2022 19:00:00;35372 
08.01.2022 19:15:00;35260 
08.01.2022 19:30:00;35159 
08.01.2022 19:45:00;35290 
08.01.2022 20:00:00;35361 
08.01.2022 20:15:00;35215 
08.01.2022 20:30:00;35226 
08.01.2022 20:45:00;35162 
08.01.2022 21:00:00;35112 
08.01.2022 21:15:00;35121 
08.01.2022 21:30:00;35005 
08.01.2022 21:45:00;34978 
08.01.2022 22:00:00;35166 
08.01.2022 22:15:00;35088 
08.01.2022 22:30:00;35482 
08.01.2022 22:45:00;35786 
08.01.2022 23:00:00;35468 
08.01.2022 23:15:00;35331 
08.01.2022 23:30:00;35187 
08.01.2022 23:45:00;35269 
09.01.2022 00:00:00;35061 
09.01.2022 00:15:00;34855 
09.01.2022 00:30:00;35313 
09.01.2022 00:45:00;35191 
09.01.2022 01:00:00;35354 
09.01.2022 01:15:00;34919 
09.01.2022 01:30:00;35210 
09.01.2022 01:45:00;35026 
09.01.2022 02:00:00;35022 
09.01.2022 02:15:00;34775 
09.01.2022 02:30:00;35112 
09.01.2022 02:45:00;34900 
09.01.2022 03:00:00;34888 
09.01.2022 03:15:00;35234 
09.01.2022 03:30:00;35238 
09.01.2022 03:45:00;34840 
09.01.2022 04:00:00;35016 
09.01.2022 04:15:00;35272 
09.01.2022 04:30:00;35225 
09.01.2022 04:45:00;35308 
09.01.2022 05:00:00;35365 
09.01.2022 05:15:00;35070 
09.01.2022 05:30:00;35207 
09.01.2022 05:45:00;35056 
09.01.2022 06:00:00;34999 
09.01.2022 06:15:00;35169 
09.01.2022 06:30:00;35101 
09.01.2022 06:45:00;35201 
09.01.2022 07:00:00;35156 
09.01.2022 07:15:00;35238 
09.01.2022 07:30:00;35140 
09.01.2022 07:45:00;35024 
09.01.2022 08:00:00;35440 
09.01.2022 08:15:00;35732 
09.01.2022 08:30:00;35576 
09.01.2022 08:45:00;35576 
09.01.2022 09:00:00;35481 
09.01.2022 09:15:00;35420 
09.01.2022 09:30:00;35258 
09.01.2022 09:45:00;35048 
09.01.2022 10:00:00;34985 
09.01.2022 10:15:00;34936 
09.01.2022 10:30:00;35014 
09.01.2022 10:45:00;34699 
09.01.2022 11:00:00;34686 
09.01.2022 11:15:00;34509 
09.01.2022 11:30:00;34912 
09.01.2022 11:45:00;35021 
09.01.2022 12:00:00;34692 
09.01.2022 12:15:00;34635 
09.01.2022 12:30:00;34405 
09.01.2022 12:45:00;34446 
09.01.2022 13:00:00;34538 
09.01.2022 13:15:00;34572 
09.01.2022 13:30:00;34611 
09.01.2022 13:45:00;34984 
09.01.2022 14:00:00;34974 
09.01.2022 14:15:00;34890 
09.01.2022 14:30:00;34745 
09.01.2022 14:45:00;35120 
09.01.2022 15:00:00;35039 
09.01.2022 15:15:00;34820 
09.01.2022 15:30:00;34865 
09.01.2022 15:45:00;34529 
09.01.2022 16:00:00;34530 
09.01.2022 16:15:00;34671 
09.01.2022 16:30:00;34679 
09.01.2022 16:45:00;35071 
09.01.2022 17:00:00;35470 
09.01.2022 17:15:00;35350 
09.01.2022 17:30:00;35079 
09.01.2022 17:45:00;35406 
09.01.2022 18:00:00;35333 
09.01.2022 18:15:00;35408 
09.01.2022 18:30:00;35527 
09.01.2022 18:45:00;35591 
09.01.2022 19:00:00;35612 
09.01.2022 19:15:00;35711 
09.01.2022 19:30:00;35654 
09.01.2022 19:45:00;36030 
09.01.2022 20:00:00;35776 
09.01.2022 20:15:00;35826 
09.01.2022 20:30:00;35536 
09.01.2022 20:45:00;35817 
09.01.2022 21:00:00;35884 
09.01.2022 21:15:00;35692 